• In Hungary
  • List of Countries
  • For 7 days
  • Water Temperature
  • Satellite Maps
  • Weather Map
  • News
  • Weather Widgets
  • user-avatar
    Login

    Hourly Weather Karlin

    Today, 18 October, Wednesday

    Time Temperature Precipitation Wind Pressure Humidity
    00:00 +13°C° 0 mm 1 mps 746 mmHg 84%
    01:00 +13°C° 0 mm 1 mps 746 mmHg 87%
    02:00 +13°C° 0 mm 1 mps 745 mmHg 88%
    03:00 +12°C° 0 mm 1 mps 745 mmHg 89%
    04:00 +12°C° 0 mm 1 mps 744 mmHg 90%
    05:00 +12°C° 0 mm 1 mps 744 mmHg 90%
    06:00 +12°C° 0 mm 1 mps 744 mmHg 91%
    07:00 +11°C° 0 mm 1 mps 744 mmHg 89%
    08:00 +13°C° 0 mm 1 mps 744 mmHg 84%
    09:00 +14°C° 0 mm 1 mps 744 mmHg 78%
    10:00 +16°C° 0 mm 1 mps 744 mmHg 72%
    11:00 +18°C° 0 mm 1 mps 744 mmHg 68%
    12:00 +19°C° 0 mm 1 mps 743 mmHg 64%
    13:00 +20°C° 0 mm 1 mps 743 mmHg 60%
    14:00 +20°C° 0 mm 1 mps 743 mmHg 63%
    15:00 +20°C° 0 mm 1 mps 743 mmHg 65%
    16:00 +19°C° 0 mm 1 mps 742 mmHg 68%
    17:00 +16°C° 0 mm 0 mps 742 mmHg 73%
    18:00 +15°C° 0 mm 0 mps 742 mmHg 78%
    19:00 +13°C° 0 mm 0 mps 742 mmHg 82%
    20:00 +13°C° 0 mm 0 mps 743 mmHg 84%
    21:00 +12°C° 0 mm 0 mps 743 mmHg 85%
    22:00 +13°C° 0 mm 1 mps 743 mmHg 86%
    23:00 +13°C° 0 mm 1 mps 743 mmHg 86%

    Tomorrow, 19 October, Thursday

    Time Temperature Precipitation Wind Pressure Humidity
    00:00 +13°C° 0 mm 1 mps 743 mmHg 87%
    01:00 +12°C° 0 mm 1 mps 743 mmHg 88%
    02:00 +12°C° 0 mm 1 mps 743 mmHg 87%
    03:00 +12°C° 0 mm 1 mps 743 mmHg 87%
    04:00 +11°C° 0 mm 1 mps 743 mmHg 87%
    05:00 +11°C° 0 mm 1 mps 743 mmHg 87%
    06:00 +11°C° 0 mm 1 mps 743 mmHg 86%
    07:00 +11°C° 0 mm 1 mps 744 mmHg 86%
    08:00 +13°C° 0 mm 1 mps 744 mmHg 78%
    09:00 +15°C° 0 mm 1 mps 744 mmHg 70%
    10:00 +18°C° 0 mm 1 mps 744 mmHg 63%
    11:00 +19°C° 0 mm 1 mps 744 mmHg 58%
    12:00 +20°C° 0 mm 1 mps 744 mmHg 54%
    13:00 +21°C° 0 mm 1 mps 744 mmHg 50%
    14:00 +21°C° 0 mm 1 mps 744 mmHg 52%
    15:00 +21°C° 0 mm 1 mps 743 mmHg 55%
    16:00 +18°C° 0 mm 0 mps 743 mmHg 57%
    17:00 +19°C° 0 mm 1 mps 743 mmHg 61%
    18:00 +16°C° 0 mm 1 mps 744 mmHg 65%
    19:00 +15°C° 0 mm 1 mps 744 mmHg 69%
    20:00 +14°C° 0 mm 1 mps 744 mmHg 70%
    21:00 +14°C° 0 mm 1 mps 744 mmHg 72%
    22:00 +13°C° 0 mm 1 mps 744 mmHg 73%
    23:00 +13°C° 0 mm 1 mps 744 mmHg 75%

    Day after tomorrow, 20 October, Friday

    Time Temperature Precipitation Wind Pressure Humidity
    00:00 +13°C° 0 mm 1 mps 744 mmHg 76%
    01:00 +12°C° 0 mm 1 mps 744 mmHg 77%
    02:00 +12°C° 0 mm 1 mps 744 mmHg 78%
    03:00 +12°C° 0 mm 1 mps 744 mmHg 79%
    04:00 +11°C° 0 mm 1 mps 744 mmHg 80%
    05:00 +11°C° 0 mm 1 mps 744 mmHg 81%
    06:00 +11°C° 0 mm 1 mps 744 mmHg 81%
    07:00 +11°C° 0 mm 1 mps 745 mmHg 82%
    08:00 +13°C° 0 mm 1 mps 745 mmHg 75%
    09:00 +15°C° 0 mm 1 mps 745 mmHg 68%
    10:00 +18°C° 0 mm 1 mps 745 mmHg 61%
    11:00 +19°C° 0 mm 1 mps 745 mmHg 57%
    12:00 +20°C° 0 mm 1 mps 745 mmHg 53%
    13:00 +20°C° 0 mm 2 mps 745 mmHg 49%
    14:00 +20°C° 0 mm 2 mps 745 mmHg 53%
    15:00 +20°C° 0 mm 1 mps 745 mmHg 56%
    16:00 +20°C° 0 mm 1 mps 745 mmHg 59%
    17:00 +19°C° 0 mm 1 mps 745 mmHg 64%
    18:00 +16°C° 0 mm 1 mps 745 mmHg 68%
    19:00 +15°C° 0 mm 1 mps 746 mmHg 73%
    20:00 +14°C° 0 mm 1 mps 746 mmHg 75%
    21:00 +14°C° 0 mm 1 mps 746 mmHg 77%
    22:00 +13°C° 0 mm 1 mps 746 mmHg 79%
    23:00 +13°C° 0 mm 1 mps 746 mmHg 81%

    21 October, Saturday

    Time Temperature Precipitation Wind Pressure Humidity
    00:00 +13°C° 0 mm 1 mps 746 mmHg 82%
    01:00 +12°C° 0 mm 1 mps 746 mmHg 83%
    02:00 +12°C° 0 mm 1 mps 746 mmHg 84%
    03:00 +12°C° 0 mm 1 mps 746 mmHg 85%
    04:00 +12°C° 0 mm 1 mps 746 mmHg 86%
    05:00 +12°C° 0 mm 1 mps 746 mmHg 86%
    06:00 +11°C° 0 mm 1 mps 746 mmHg 87%
    07:00 +11°C° 0 mm 1 mps 746 mmHg 88%
    08:00 +13°C° 0 mm 1 mps 746 mmHg 81%
    09:00 +15°C° 0 mm 1 mps 746 mmHg 74%
    10:00 +16°C° 0 mm 1 mps 746 mmHg 68%
    11:00 +17°C° 0 mm 2 mps 746 mmHg 64%
    12:00 +18°C° 0 mm 2 mps 746 mmHg 61%
    13:00 +19°C° 0 mm 2 mps 745 mmHg 57%
    14:00 +19°C° 0 mm 2 mps 745 mmHg 60%
    15:00 +20°C° 0 mm 1 mps 745 mmHg 63%
    16:00 +19°C° 0 mm 1 mps 744 mmHg 65%
    17:00 +18°C° 0 mm 1 mps 744 mmHg 69%
    18:00 +16°C° 0 mm 2 mps 744 mmHg 73%
    19:00 +15°C° 0 mm 2 mps 744 mmHg 77%
    20:00 +14°C° 0 mm 2 mps 744 mmHg 78%
    21:00 +14°C° 0 mm 2 mps 744 mmHg 79%
    22:00 +14°C° 0 mm 2 mps 744 mmHg 81%
    23:00 +14°C° 0.1 mm 2 mps 744 mmHg 82%

    22 October, Sunday

    Time Temperature Precipitation Wind Pressure Humidity
    00:00 +14°C° 0.1 mm 2 mps 744 mmHg 83%
    01:00 +14°C° 0.1 mm 2 mps 744 mmHg 84%
    02:00 +13°C° 0.6 mm 2 mps 744 mmHg 86%
    03:00 +13°C° 0.6 mm 2 mps 744 mmHg 88%
    04:00 +13°C° 0.6 mm 2 mps 744 mmHg 90%
    05:00 +13°C° 0.6 mm 2 mps 744 mmHg 90%
    06:00 +13°C° 0.6 mm 2 mps 744 mmHg 91%
    07:00 +12°C° 0.6 mm 2 mps 744 mmHg 91%
    08:00 +11°C° 0.4 mm 3 mps 745 mmHg 88%
    09:00 +12°C° 0.4 mm 3 mps 745 mmHg 85%
    10:00 +12°C° 0.4 mm 4 mps 745 mmHg 82%
    11:00 +12°C° 0.2 mm 4 mps 745 mmHg 80%
    12:00 +12°C° 0.2 mm 4 mps 745 mmHg 77%
    13:00 +12°C° 0.2 mm 4 mps 745 mmHg 75%
    14:00 +12°C° 0.1 mm 3 mps 745 mmHg 74%
    15:00 +11°C° 0.1 mm 3 mps 745 mmHg 74%
    16:00 +11°C° 0.1 mm 3 mps 745 mmHg 74%
    17:00 +11°C° 0.1 mm 3 mps 745 mmHg 76%
    18:00 +10°C° 0.1 mm 3 mps 745 mmHg 78%
    19:00 +9°C° 0.1 mm 3 mps 746 mmHg 80%
    20:00 +9°C° 0 mm 3 mps 746 mmHg 81%
    21:00 +9°C° 0 mm 3 mps 746 mmHg 81%
    22:00 +8°C° 0 mm 3 mps 746 mmHg 82%
    23:00 +8°C° 0 mm 3 mps 746 mmHg 83%

    23 October, Monday

    Time Temperature Precipitation Wind Pressure Humidity
    00:00 +8°C° 0 mm 2 mps 746 mmHg 85%
    01:00 +7°C° 0 mm 2 mps 746 mmHg 86%
    02:00 +7°C° 0 mm 2 mps 746 mmHg 87%
    03:00 +7°C° 0 mm 3 mps 746 mmHg 88%
    04:00 +5°C° 0 mm 3 mps 746 mmHg 88%
    05:00 +6°C° 0 mm 2 mps 746 mmHg 89%
    06:00 +6°C° 0 mm 2 mps 747 mmHg 89%
    07:00 +6°C° 0 mm 2 mps 747 mmHg 90%
    08:00 +7°C° 0 mm 3 mps 747 mmHg 84%
    09:00 +9°C° 0 mm 3 mps 747 mmHg 79%
    10:00 +10°C° 0 mm 3 mps 747 mmHg 73%
    11:00 +11°C° 0 mm 3 mps 747 mmHg 71%
    12:00 +11°C° 0 mm 3 mps 747 mmHg 69%
    13:00 +12°C° 0 mm 3 mps 747 mmHg 66%
    14:00 +12°C° 0 mm 2 mps 747 mmHg 68%
    15:00 +12°C° 0 mm 2 mps 747 mmHg 70%
    16:00 +12°C° 0 mm 2 mps 747 mmHg 72%
    17:00 +10°C° 0 mm 2 mps 747 mmHg 76%
    18:00 +9°C° 0 mm 2 mps 747 mmHg 80%
    19:00 +8°C° 0 mm 2 mps 748 mmHg 83%
    20:00 +8°C° 0 mm 2 mps 748 mmHg 85%
    21:00 +8°C° 0 mm 2 mps 748 mmHg 87%
    22:00 +8°C° 0 mm 1 mps 748 mmHg 89%
    23:00 +8°C° 0 mm 1 mps 748 mmHg 90%
    Show more